Terminal Aerodrome Forecast
Issued by NWS Shreveport, LA

Home | Current Version | Previous Version | Text Only | Print | Product List | Glossary On
Versions: 1 2 3 4 5 6 7 8 9 10 11 12 13 14 15 16 17 18 19 20 21
000
FTUS44 KSHV 261100 RRA
TAFGGG
TAF
KGGG 261141Z 2612/2712 21006KT P6SM FEW250
     FM261600 22009KT P6SM FEW040 SCT250
     FM270100 17006KT P6SM SKC=

USA.gov is the U.S. government's official web portal to all federal, state and local government web resources and services.